Regional Weather Roundup
Issued by NWS Cleveland, OH

Home | Current Version | Previous Version | Text Only | Print | Product List | Glossary On
Versions: 1 2 3 4 5 6 7 8 9 10 11 12 13 14 15 16 17 18 19 20 21 22 23 24 25 26 27 28 29 30 31 32 33 34 35 36 37 38 39 40 41 42 43 44 45 46 47 48 49 50
000
ASUS41 KCLE 051312
RWRCLE
OHIO REGIONAL WEATHER ROUNDUP
NATIONAL WEATHER SERVICE WILMINGTON, OH
900 AM EDT THU MAY 05 2016

NOTE: "FAIR" INDICATES FEW OR NO CLOUDS BELOW 12,000 FEET WITH NO
SIGNIFICANT WEATHER AND/OR OBSTRUCTIONS TO VISIBILITY.

OHZ001>008-015>018-024>027-034-035-043-044-051400-
   NORTHWEST OHIO

CITY           SKY/WX    TMP DP  RH WIND       PRES   REMARKS
DEFIANCE       FAIR      50  43  77 N8        29.83R
FINDLAY        CLOUDY    48  43  82 N8        29.79R HAZE
TOLEDO EXPRESS PTSUNNY   48  43  82 N13       29.81R
TOLEDO EXEC    CLOUDY    50  42  74 N9G20     29.82R
LIMA           LGT RAIN  43  42  97 NW10      29.80R
$$

OHZ009>014-019>023-028>033-038-089-051400-
   NORTHEAST OHIO

CITY           SKY/WX    TMP DP  RH WIND       PRES   REMARKS
CLE-HOPKINS    CLOUDY    49  46  90 N6        29.77S FOG
CLE-LAKEFRONT  CLOUDY    49  46  90 NE9       29.75R
CUY CO. ARPT   CLOUDY    48  46  93 NE6       29.76R FOG
LORAIN-ELYRIA  LGT RAIN  47  43  86 NE10      29.77R
ASHTABULA      CLOUDY    48  45  89 N6        29.76R
AKRON-CANTON   CLOUDY    49  46  90 N3        29.74R
WOOSTER        CLOUDY    48  46  93 N6        29.76R
MANSFIELD      CLOUDY    46  45  96 NW8       29.76R FOG
YOUNGSTOWN     CLOUDY    50  48  93 NW6       29.73R FOG
$$

OHZ042-051>053-060>062-070>072-077>081-051400-
  SOUTHWEST OHIO

CITY           SKY/WX    TMP DP  RH WIND       PRES   REMARKS
CINC-COVINGTON PTSUNNY   45  38  76 N12       29.80R
CINC-LUNKEN    PTSUNNY   46  39  76 NE9       29.82R
HAMILTON       FAIR      46  37  71 N9        29.83R
DAYTON         PTSUNNY   43  40  89 N7        29.81R
WRIGHT-PAT AFB PTSUNNY   44  41  88 N8        29.80R
DAYTON GENERAL FAIR      45  37  73 N7        29.79R
WILMINGTON     PTSUNNY   46  39  76 N8        29.79R
$$

OHZ036-037-039>041-045>050-054>059-063>069-073>076-082>088-051400-
  CENTRAL AND SOUTHEAST OHIO

CITY           SKY/WX    TMP DP  RH WIND       PRES   REMARKS
COLUMBUS       CLOUDY    45  41  87 NW8       29.77R FOG
OSU AIRPORT    CLOUDY    44  40  85 NW9       29.77R
BOLTON FIELD   CLOUDY    45  39  81 NW9       29.78R
RICKENBACK AFB PTSUNNY   43  39  86 NW5       29.78R
NEWARK         CLOUDY    46  41  82 W5        29.76R
MARION         LGT RAIN  44  42  93 NW8       29.78R FOG
LANCASTER      PTSUNNY   46  40  79 NW8       29.77R
ZANESVILLE     CLOUDY    48  43  82 NW9       29.74S
NEW PHILLY     CLOUDY    49  47  93 NW3       29.74R
$$



USA.gov is the U.S. government's official web portal to all federal, state and local government web resources and services.